Regional Weather Roundup
Issued by NWS

Home | Current Version | Previous Version | Graphics & Text | Print | Product List | Glossary On
Versions: 1 2 3 4 5 6 7 8 9 10 11 12 13 14 15 16 17 18 19 20 21 22 23 24 25 26 27 28 29 30 31 32 33 34 35 36 37 38 39 40 41 42 43 44 45 46 47 48 49 50
000
ASUS43 KLOT 281506
RWRIL

ILLINOIS REGIONAL WEATHER ROUNDUP
NATIONAL WEATHER SERVICE CHICAGO/ROMEOVILLE IL
1000 AM CDT THU AUG 28 2014

NOTE: "FAIR" INDICATES FEW OR NO CLOUDS BELOW 12,000 FEET WITH NO
SIGNIFICANT WEATHER AND/OR OBSTRUCTIONS TO VISIBILITY.

* THESE STATIONS ARE NOT UNDER NWS QUALITY CONTROL. THEY ALSO MAY NOT
  REPORT WEATHER SUCH AS PRECIPITATION OR FOG.

ILZ001-002-007-009-015-016-024-281600-
NORTHWEST ILLINOIS

CITY           SKY/WX    TMP DP  RH WIND       PRES   REMARKS
MOLINE         PTSUNNY   71  61  70 E13       30.08S
STERLING*      PTSUNNY   72  63  73 E13       30.11F
SAVANNA*       PTSUNNY   72  60  65 SE8       30.11S
$$

ILZ003-004-008-010-011-017-018-281600-
NORTH CENTRAL ILLINOIS

CITY           SKY/WX    TMP DP  RH WIND       PRES   REMARKS
ROCKFORD       MOSUNNY   72  59  63 SE13      30.15R
FREEPORT*      MOSUNNY   70  64  82 SE12      30.15S
ROCHELLE*      MOSUNNY   71  60  67 E7        30.14R
DE KALB*       SUNNY     69  57  65 E10       30.15R
PERU*          PTSUNNY   71  59  64 E8        30.12S
$$

ILZ005-006-012>014-019>023-281600-
NORTHEAST ILLINOIS

CITY           SKY/WX    TMP DP  RH WIND       PRES   REMARKS
CHICAGO-OHARE  MOSUNNY   72  53  51 E12       30.13S
CHICAGO-MIDWAY MOSUNNY   72  57  59 E12       30.13S
AURORA         SUNNY     73  56  54 E9        30.14R
LANSING*       SUNNY     71  57  61 E6        30.13S
JOLIET*        SUNNY     72  54  53 E7        30.14S
WAUKEGAN       SUNNY     68  52  56 E9G18     30.14S
DUPAGE AIRPORT SUNNY     73  56  54 E9        30.12S
KANKAKEE*      PTSUNNY   72  64  75 E7        30.12S
WHEELING       SUNNY     72  54  53 E8        30.15S
MORRIS*        SUNNY     72  59  62 E9        30.12S
ROMEOVILLE*    SUNNY     71  55  57 E9        30.13S
NORTHERLY ISL    N/A     69  57  65 E9          N/A
$$

LMZ740>746-281600-
SOUTHERN LAKE MICHIGAN

STATION/POSITION SKY/WX   TEMP    WIND        PRES    VSBY  WAVE
                          AIR SEA DIR/SP/G                  HT/PER
                          (F)     (DEG/KT/KT) (MB)    (MI)  (FT/S)
SOUTHERN BUOY              65 69  110/ 12/ 14 1021.0F
WAUKEGAN HARBOR            67     100/ 10/ 12   N/A
HARRISON CRIB              67      90/ 11/ 13   N/A
BURNHAM HARBOR             69      70/  8/ 12   N/A
CALUMET HARBOR             67      70/  6/  8 1019.2S
MICHIGAN CITY              66      30/  3/  4   N/A
MICHIGAN CITY 6N           66 72   80/  2/  4   N/A           2/ 4
ST. JOSEPH                 67 72   90/  8/ 10   N/A           1/ 4
$$

ILZ025>027-034>036-040-047-049-050-058-095>099-281600-
WEST-CENTRAL ILLINOIS

CITY           SKY/WX    TMP DP  RH WIND       PRES   REMARKS
QUINCY         PTSUNNY   75  70  84 SE12      30.04S
GALESBURG*     CLOUDY    71  64  79 E8        30.09R
MACOMB*        PTSUNNY   69  65  85 E7        30.09S
JACKSONVILLE*  SUNNY     78  72  81 SE9       30.07F HX  81
PITTSFIELD*    MOSUNNY   78  71  79 E8        30.06S HX  81
$$

ILZ028>032-037-038-041>044-048-051>054-059>061-281600-
CENTRAL ILLINOIS

CITY           SKY/WX    TMP DP  RH WIND       PRES   REMARKS
DECATUR        PTSUNNY   74  67  78 E8        30.09S
PEORIA         PTSUNNY   73  63  70 E8        30.09S
LACON*         PTSUNNY   71  61  72 SE8       30.09S
LINCOLN*       PTSUNNY   75  65  72 E8        30.06S
SPRINGFIELD    PTSUNNY   77  67  71 SE7       30.07S
TAYLORVILLE    PTSUNNY   73  68  83 SE8       30.07S
$$

ILZ033-039-045-046-055>057-062-063-281600-
EAST-CENTRAL ILLINOIS

CITY           SKY/WX    TMP DP  RH WIND       PRES   REMARKS
CHAMPAIGN      MOSUNNY   74  68  81 E7        30.11S
DANVILLE*      PTSUNNY   73  65  77 E5        30.09R
RANTOUL*       MOSUNNY   74  64  71 SE6       30.12S
MATTOON        PTSUNNY   76  66  71 CALM      30.08S
PARIS*         MOSUNNY   73  67  83 E3        30.10S
$$

ILZ079-100>102-281600-
SOUTHWEST ILLINOIS

CITY           SKY/WX    TMP DP  RH WIND       PRES   REMARKS
ALTON          MOSUNNY   79  73  83 SE7       30.06S HX  82
BELLEVILLE     SUNNY     81  75  83 VRB2      30.05S HX  86
CAHOKIA*       SUNNY     81  73  78 E5        30.04F HX  85
SPARTA*        SUNNY     79  73  80 CALM      30.06S HX  83
$$

ILZ064>066-069>071-074>076-080>082-084>086-088>090-092>094-281600-
SOUTH-CENTRAL ILLINOIS

CITY           SKY/WX    TMP DP  RH WIND       PRES   REMARKS
CARBONDALE     SUNNY     79  72  79 CALM      30.05S HX  82
CAIRO*         SUNNY     84  73  69 CALM      30.04S HX  91
EFFINGHAM*     SUNNY     79  67  65 SE3       30.07F HX  81
MARION         PTSUNNY   82  73  74 SE5       30.06S HX  88
MT. VERNON     MOSUNNY   79  72  78 E6        30.06S HX  82
SALEM*         SUNNY     80  75  84 E3        30.07R HX  85
METROPOLIS*    SUNNY     83  74  74 CALM      30.04S HX  90
$$

ILZ067-068-072-073-078-083-087-091-281600-
SOUTHEAST ILLINOIS

CITY           SKY/WX    TMP DP  RH WIND       PRES   REMARKS
LAWRENCEVILLE  MOSUNNY   78  70  76 E6        30.07S HX  80
FLORA*         MOSUNNY   79  71  75 E6        30.07S HX  82
FAIRFIELD*     MOSUNNY   81  75  83 CALM      30.05S HX  86
HARRISBURG*    SUNNY     82  74  78 SE3       30.06S HX  87
ROBINSON*      MOSUNNY   82  72  71 SE5       30.08S HX  86
CARMI*           N/A     85  77  77 E3        30.05S HX  94
$$

ABBREVIATIONS USED IN REMARKS
   TC - TEMPERATURE IN CELSIUS
  WCI - WIND CHILL INDEX
   HX - HEAT INDEX
  VSB - VISIBILITY
$$



USA.gov is the U.S. government's official web portal to all federal, state and local government web resources and services.